DECAYED

STARLINK-36340, 68188 (Decayed)

Orbit data source: Space-Track

STARLINK-36340, 68188 was a payload satellite owned by SpaceX/Seattle (US) in LEO that was launched on Sat, 14 Mar 2026 UTC via an FALCON 9 launch vehicle from the Air Force Eastern Test Range (AFETR). Payload-class satellites include a variety of spacecraft equipped with specific instruments for various scientific and technological missions. These include communications satellites like Starlink; space stations such as the ISS; scientific satellites like the Hubble; Earth observation satellites from companies like Planet Labs, Umbra, and HawkEye 360; GPS; miniature CubeSats for education and research; and military/defense satellites.

Not visible in the next 10 days
Identifier
68188, 2026-050X
Orbit
Decayed
Country
Flag of USUS
Related business
Manufacturer
SpaceX/Seattle
Mission
Decayed spacecraft
Bus & Motor
STARLINK V2MO, Unknown motor
Mass
575 kg wet, ~530 kg dry
Launch date (UTC)
2026-03-14 (3 months ago)
Launch vehicle
FALCON 9
Launch site
Air Force Eastern Test Range (AFETR)
Object type
Payload
Rocket body
Debris
Shape & HBR
Unknown shape, 17.7 m
Radar Cross Section
Large (>1 m²)

Expand to show TLE details & history
Last TLE update: 2 months ago

TLE from 2 months ago
0 STARLINK-36340
1 68188U 26050X   26100.26490804  .18560142  12048-4  29596-2 0  9995
2 68188  53.1502 122.4500 0006839 198.5487 161.5310 16.32911010  5388
Epoch: 2026-04-10T06:21Z
TLE epoch observation values (Epoch: 2026-04-10T06:21:28.054Z)
Latitude
-0°
Longitude
-171.41795°
Altitude
189.924 km
Speed
7.791 km/s
True Right ascension
08h 09m 47s
True Declination
0° 00' 00"
Sunlit
Object was in daylight at epoch
Visualization orbit readout
Latitude
Unknown
Longitude
Unknown
Altitude
Unknown
Speed
Unknown
Apparent Right ascension
Unknown
Apparent Declination
Unknown
Sunlit
N/A
Visualization observer readout
Local Sidereal Time
07:22:53
Azimuth
Unknown
Elevation
Unknown
Doppler factor
Unknown
Orbital elements
Apogee altitude
189.486 km
Perigee altitude
180.509 km
Semi-major axis
6,563.134 km
Eccentricity
0.00068
Inclination
53.1502°
RAAN
122.45°
Arg. of periapsis
198.5487°
True anomaly
161.55581°
Mean anomaly
161.531°
Eccentric anomaly
161.54341°
Mean motion
4.08203 °/min
Orbital period
88.19 mins
BSTAR
0.0029596
Loading maneuver chart data...
Computing Atmospheric mass density...
Loading historical data...
Loading historical data...
Loading historical data...
Loading historical data...
Loading historical data...
Loading historical data...
Loading historical data...

Documentation

Showing up to 5 results
|